This demonstration page uses our WeatherBlox Daily Observations layout. Learn more.

Hourly Observations for December 24, 2017

Temp ( °F °C ) Dew Point ( °F °C ) Humidity (%) Winds ( mph kmh ) Pressure ( in mb ) Visibility ( mi km ) Precip ( " mm )
12:31 am 00:31 Cloudy 34 1.1 28 -2.2 79 79 WNW 3 6 30.27 1025 10 16.0934 0 0
12:53 am 00:53 Mostly Cloudy 33 0.6 29 -1.7 85 85 Calm 30.24 1024 10 16.0934 0 0
1:53 am 01:53 Clear 31 -0.6 28 -2.2 89 89 NNW 5 7 30.23 1024 10 16.0934 0 0
2:53 am 02:53 Clear 32 0 27 -2.8 82 82 N 5 7 30.23 1024 10 16.0934 0 0
3:53 am 03:53 Clear 31 -0.6 28 -2.2 89 89 Calm 30.25 1024 10 16.0934 0 0
4:53 am 04:53 Clear 31 -0.6 28 -2.2 89 89 Calm 30.22 1024 10 16.0934 0 0
5:53 am 05:53 Clear 31 -0.6 27 -2.8 85 85 ENE 3 6 30.22 1024 10 16.0934 0 0
6:53 am 06:53 Clear 31 -0.6 26 -3.3 82 82 E 6 9 30.22 1023 10 16.0934 0 0
7:53 am 07:53 Clear 31 -0.6 27 -2.8 85 85 E 5 7 30.19 1022 10 16.0934 0 0
8:53 am 08:53 Mostly Sunny 32 0 26 -3.3 79 79 E 8 13 30.15 1021 9 14.48406 0 0
9:53 am 09:53 Sunny 33 0.6 27 -2.8 78 78 E 7 11 30.13 1020 9 14.48406 0 0
10:53 am 10:53 Mostly Sunny 35 1.7 26 -3.3 70 70 ESE 5 7 30.14 1021 10 16.0934 0 0
11:28 am 11:28 Mostly Cloudy 36 2.2 27 -2.8 70 70 SE 5 7 30.09 1019 10 16.0934 0 0
11:53 am 11:53 Cloudy 36 2.2 26 -3.3 67 67 VRB 5 7 30.09 1019 10 16.0934 0 0
12:53 pm 12:53 Cloudy 36 2.2 27 -2.8 70 70 S 3 6 30.03 1017 10 16.0934 0 0
1:53 pm 13:53 Cloudy 36 2.2 27 -2.8 70 70 S 3 6 29.99 1016 10 16.0934 0 0
2:53 pm 14:53 Cloudy 36 2.2 27 -2.8 70 70 Calm 29.96 1015 10 16.0934 0 0
3:45 pm 15:45 Cloudy with Light Wintry Mix 34 1.1 32 0 92 92 WSW 5 7 29.97 1015 2.5 4.02335 0 0.0254
3:53 pm 15:53 Cloudy with Light Wintry Mix 34 1.1 32 0 92 92 Calm 29.95 1014 2.5 4.02335 0 0.0254
4:05 pm 16:05 Cloudy with Mist and Fog 34 1.1 32 0 92 92 W 3 6 29.94 1014 3 4.82802 0 0.0254
4:10 pm 16:10 Cloudy with Mist and Fog 34 1.1 32 0 92 92 WSW 3 6 29.94 1014 3 4.82802 0 0.0254
4:20 pm 16:20 Cloudy with Mist and Fog 34 1.1 32 0 92 92 W 3 6 29.94 1014 2.5 4.02335 0 0.0254
4:30 pm 16:30 Cloudy with Light Snow 34 1.1 32 0 92 92 W 3 6 29.94 1014 1.5 2.41401 0 0.0254
4:49 pm 16:49 Cloudy with Light Snow 34 1 32 0 93 93 Calm 29.94 1014 1.25 2.011675 0.01 0.254
4:53 pm 16:53 Cloudy with Light Snow 33 0.6 32 0 96 96 Calm 29.93 1014 1 1.60934 0.01 0.254
5:06 pm 17:06 Cloudy with Light Snow 33 0.6 32 0 96 96 SW 3 6 29.94 1014 0.75 1.207005 0.01 0.254
5:19 pm 17:19 Cloudy with Snow 33 0.6 32 0 96 96 WSW 5 7 29.94 1014 0.5 0.80467 0.01 0.254
5:34 pm 17:34 Cloudy with Light Snow 33 0.6 31 -0.6 92 92 WSW 6 9 29.94 1014 1 1.60934 0.02 0.508
5:48 pm 17:48 Cloudy with Light Snow 34 1 30 -1 87 87 WSW 6 9 29.97 1015 1.25 2.011675 0.03 0.762
5:53 pm 17:53 Cloudy with Light Snow 33 0.6 32 0 96 96 WSW 7 11 29.95 1014 1.25 2.011675 0.03 0.762
6:31 pm 18:31 Cloudy with Light Snow 33 0.6 32 0 96 96 WSW 8 13 30 1016 2 3.21868 0.01 0.254
6:43 pm 18:43 Cloudy with Light Snow 33 0.6 31 -0.6 92 92 WSW 8 13 30 1016 3 4.82802 0.01 0.254
6:45 pm 18:45 Cloudy with Light Snow 33 0.6 31 -0.6 92 92 WSW 9 15 30 1016 2.5 4.02335 0.01 0.254
6:53 pm 18:53 Cloudy with Light Snow 33 0.6 32 0 96 96 WSW 10 17 29.95 1014 2.5 4.02335 0.01 0.254
7:04 pm 19:04 Cloudy with Light Snow 33 0.6 32 0 96 96 W 12 19 30 1016 3 4.82802 0 0.0254
7:11 pm 19:11 Cloudy with Light Snow 33 0.6 31 -0.6 92 92 W 13 20 30 1016 3 4.82802 0 0.0254
7:26 pm 19:26 Cloudy with Light Snow 33 0.6 31 -0.6 92 92 W 13 20 30 1016 4 6.43736 0 0.0254
7:30 pm 19:30 Cloudy with Light Snow 32 0 30 -1.1 92 92 W 13 20 30 1016 2.5 4.02335 0 0.0254
7:38 pm 19:38 Windy with Snow Likely 32 0 30 -1.1 92 92 W 22 35 30 1016 1.5 2.41401 0 0.0254
7:48 pm 19:48 Windy with Snow Likely 30 -1 28 -2 93 93 W 21 33 30.03 1017 1 1.60934 0.01 0.254
7:53 pm 19:53 Cloudy with Light Snow 30 -1.1 27 -2.8 88 88 W 15 24 29.99 1016 1.25 2.011675 0.01 0.254
7:59 pm 19:59 Cloudy with Light Snow 30 -1.1 27 -2.8 88 88 W 16 26 30.03 1017 2 3.21868 0 0.0254
8:06 pm 20:06 Cloudy with Light Snow 30 -1.1 27 -2.8 88 88 W 14 22 30.03 1017 5 8.0467 0 0.0254
8:53 pm 20:53 Cloudy 28 -2.2 23 -5 81 81 W 14 22 30.04 1017 9 14.48406 0 0.0254
9:53 pm 21:53 Cloudy 25 -3.9 18 -7.8 75 75 W 18 30 30.09 1019 10 16.0934 0 0.0254
10:53 pm 22:53 Cloudy with Light Snow 22 -5.6 15 -9.4 75 75 W 15 24 30.15 1021 9 14.48406 0 0.0254
11:32 pm 23:32 Cloudy with Light Snow 22 -5.6 17 -8.3 82 82 W 14 22 30.18 1022 2.5 4.02335 0 0.0254
11:40 pm 23:40 Cloudy with Light Snow 22 -5.6 15 -9.4 75 75 W 18 30 30.18 1022 4 6.43736 0 0.0254
11:53 pm 23:53 Cloudy 22 -5.6 13 -10.6 68 68 W 20 31 30.16 1022 9 14.48406 0 0.0254

Powered by AerisWeather